Wahpeton, MN

8:49 AM CDT on October 17, 2019 (GMT -0500)
Stern

Weather History for KBWP - August, 2019

Change the Weather History Date:

Thursday, August 29, 2019

  Actual Average (KFFM) Record (KFFM)
Temperature  
Mean Temperature 58 °F -  
Max Temperature 68 °F 78 °F 95 °F (1973)
Min Temperature 48 °F 56 °F 42 °F (1988)
Degree Days  
Heating Degree Days 7    
Growing Degree Days 8 (Base 50)    
Moisture  
Dew Point 47 °F    
Average Humidity 65    
Maximum Humidity 88    
Minimum Humidity 43    
Precipitation  
Precipitation 0.00 in - - ()
Sea Level Pressure  
Sea Level Pressure 29.91 in    
Wind  
Wind Speed 11 mph ()    
Max Wind Speed 25 mph    
Max Gust Speed 34 mph    
Visibility 10.0 miles    
Events      
Averages and records for this station are not official NWS values.
T = Trace of Precipitation, MM = Missing Value Source: Averaged Metar Reports

Daily Weather History Graph

Daily Weather History Graph

Search for Another Location

Airport or City:

Astronomy

Aug. 29, 2019 Rise Set
Actual Time 6:42 AM CDT 8:11 PM CDT
Civil Twilight 6:11 AM CDT 8:42 PM CDT
Nautical Twilight 5:33 AM CDT 9:20 PM CDT
Astronomical Twilight 4:52 AM CDT 10:00 PM CDT
Moon 5:22 AM CDT (8/29) 8:13 PM CDT (8/29)
Length of Visible Light 14h 30m
Length of Day
13h 28m
Waning Crescent, 1% of the Moon is Illuminated
Aug 29
Waning Crescent
Aug 30
New
Sep 5
First Quarter
Sep 13
Full
Sep 21
Last Quarter

Hourly Weather History & Observations

Time (CDT) Temp. Dew Point Humidity Pressure Visibility Wind Dir Wind Speed Gust Speed Precip Events Conditions
12:15 AM 55.4 °F 50.0 °F 82% 29.77 in 10.0 mi South 9.2 mph - N/A   Unknown
2:15 AM 55.4 °F 50.0 °F 82% 29.72 in 10.0 mi South 9.2 mph - N/A   Unknown
2:35 AM 55.4 °F 50.0 °F 82% 29.70 in 10.0 mi South 9.2 mph - N/A   Unknown
2:55 AM 55.4 °F 50.0 °F 82% 29.69 in 10.0 mi South 8.1 mph - N/A   Unknown
3:15 AM 55.4 °F 50.0 °F 82% 29.69 in 10.0 mi South 6.9 mph - N/A   Unknown
3:35 AM 55.4 °F 50.0 °F 82% 29.69 in 10.0 mi SSW 5.8 mph - N/A   Unknown
3:55 AM 55.4 °F 50.0 °F 82% 29.74 in 10.0 mi NW 13.8 mph - N/A   Unknown
4:15 AM 53.6 °F 50.0 °F 88% 29.72 in 10.0 mi WSW 3.5 mph - N/A   Unknown
4:35 AM 55.4 °F 50.0 °F 82% 29.73 in 10.0 mi West 10.4 mph - N/A   Unknown
4:55 AM 57.2 °F 50.0 °F 77% 29.73 in 10.0 mi West 11.5 mph - N/A   Unknown
5:15 AM 57.2 °F 50.0 °F 77% 29.73 in 10.0 mi West 13.8 mph - N/A   Unknown
5:35 AM 57.2 °F 50.0 °F 77% 29.74 in 10.0 mi WNW 10.4 mph - N/A   Unknown
5:55 AM 55.4 °F 50.0 °F 82% 29.75 in 10.0 mi West 8.1 mph - N/A   Unknown
6:15 AM 53.6 °F 50.0 °F 88% 29.76 in 10.0 mi West 6.9 mph - N/A   Unknown
6:35 AM 51.8 °F 48.2 °F 88% 29.77 in 10.0 mi West 5.8 mph - N/A   Unknown
6:55 AM 51.8 °F 48.2 °F 88% 29.79 in 10.0 mi WNW 8.1 mph - N/A   Unknown
7:15 AM 55.4 °F 50.0 °F 82% 29.80 in 10.0 mi WNW 9.2 mph - N/A   Unknown
7:35 AM 55.4 °F 50.0 °F 82% 29.81 in 10.0 mi NW 12.7 mph - N/A   Unknown
7:55 AM 57.2 °F 50.0 °F 77% 29.82 in 10.0 mi WNW 16.1 mph 19.6 mph N/A   Unknown
8:15 AM 59.0 °F 50.0 °F 72% 29.84 in 10.0 mi NW 16.1 mph - N/A   Unknown
8:35 AM 59.0 °F 50.0 °F 72% 29.85 in 10.0 mi NW 16.1 mph 21.9 mph N/A   Unknown
9:15 AM 60.8 °F 48.2 °F 63% 29.87 in 10.0 mi NW 19.6 mph 24.2 mph N/A   Unknown
9:35 AM 60.8 °F 46.4 °F 59% 29.88 in 10.0 mi NW 20.7 mph 32.2 mph N/A   Unknown
9:55 AM 60.8 °F 46.4 °F 59% 29.90 in 10.0 mi NNW 19.6 mph 34.5 mph N/A   Unknown
10:15 AM 62.6 °F 46.4 °F 55% 29.90 in 10.0 mi NW 25.3 mph 31.1 mph N/A   Unknown
10:35 AM 62.6 °F 46.4 °F 55% 29.91 in 10.0 mi NNW 19.6 mph 27.6 mph N/A   Unknown
10:55 AM 62.6 °F 48.2 °F 59% 29.92 in 10.0 mi NW 19.6 mph 28.8 mph N/A   Unknown
11:15 AM 62.6 °F 46.4 °F 55% 29.92 in 10.0 mi NNW 20.7 mph 29.9 mph N/A   Unknown
11:35 AM 64.4 °F 46.4 °F 52% 29.93 in 10.0 mi NW 24.2 mph 27.6 mph N/A   Unknown
11:55 AM 64.4 °F 46.4 °F 52% 29.94 in 10.0 mi NW 23.0 mph 27.6 mph N/A   Unknown
12:15 PM 64.4 °F 46.4 °F 52% 29.94 in 10.0 mi NW 21.9 mph 28.8 mph N/A   Unknown
12:35 PM 64.4 °F 46.4 °F 52% 29.94 in 10.0 mi NW 18.4 mph 28.8 mph N/A   Unknown
1:15 PM 64.4 °F 46.4 °F 52% 29.96 in 10.0 mi NNW 16.1 mph 25.3 mph N/A   Unknown
1:35 PM 64.4 °F 46.4 °F 52% 29.96 in 10.0 mi NW 19.6 mph 24.2 mph N/A   Unknown
1:55 PM 66.2 °F 46.4 °F 49% 29.97 in 10.0 mi NW 18.4 mph 24.2 mph N/A   Unknown
2:15 PM 66.2 °F 44.6 °F 46% 29.97 in 10.0 mi NW 13.8 mph 24.2 mph N/A   Unknown
2:35 PM 66.2 °F 46.4 °F 49% 29.97 in 10.0 mi NW 16.1 mph - N/A   Unknown
2:55 PM 68.0 °F 46.4 °F 46% 29.97 in 10.0 mi NW 19.6 mph - N/A   Unknown
3:15 PM 66.2 °F 46.4 °F 49% 29.98 in 10.0 mi NNW 16.1 mph - N/A   Unknown
3:35 PM 68.0 °F 46.4 °F 46% 29.97 in 10.0 mi NW 19.6 mph - N/A   Unknown
3:55 PM 66.2 °F 46.4 °F 49% 29.98 in 10.0 mi NW 12.7 mph 21.9 mph N/A   Unknown
4:15 PM 68.0 °F 44.6 °F 43% 29.98 in 10.0 mi NNW 15.0 mph 27.6 mph N/A   Unknown
4:35 PM 66.2 °F 44.6 °F 46% 29.98 in 10.0 mi NW 11.5 mph 21.9 mph N/A   Unknown
4:55 PM 68.0 °F 44.6 °F 43% 29.98 in 10.0 mi NW 18.4 mph 25.3 mph N/A   Unknown
5:15 PM 66.2 °F 44.6 °F 46% 29.98 in 10.0 mi NW 13.8 mph 24.2 mph N/A   Unknown
5:35 PM 68.0 °F 44.6 °F 43% 29.98 in 10.0 mi NW 18.4 mph 21.9 mph N/A   Unknown
5:55 PM 68.0 °F 44.6 °F 43% 29.98 in 10.0 mi NNW 12.7 mph - N/A   Unknown
6:15 PM 68.0 °F 46.4 °F 46% 29.99 in 10.0 mi NW 15.0 mph - N/A   Unknown
6:35 PM 68.0 °F 44.6 °F 43% 29.99 in 10.0 mi NNW 15.0 mph - N/A   Unknown
6:55 PM 66.2 °F 44.6 °F 46% 30.00 in 10.0 mi NNW 11.5 mph 17.3 mph N/A   Unknown
7:15 PM 64.4 °F 44.6 °F 49% 30.00 in 10.0 mi NNW 10.4 mph 18.4 mph N/A   Unknown
7:35 PM 62.6 °F 44.6 °F 52% 30.01 in 10.0 mi NNW 9.2 mph - N/A   Unknown
7:55 PM 60.8 °F 44.6 °F 55% 30.02 in 10.0 mi NW 6.9 mph - N/A   Unknown
8:15 PM 59.0 °F 44.6 °F 59% 30.02 in 10.0 mi NW 6.9 mph - N/A   Unknown
8:35 PM 55.4 °F 46.4 °F 72% 30.02 in 10.0 mi NW 4.6 mph - N/A   Unknown
8:55 PM 53.6 °F 46.4 °F 77% 30.03 in 10.0 mi NW 4.6 mph - N/A   Unknown
9:15 PM 51.8 °F 46.4 °F 82% 30.04 in 10.0 mi West 4.6 mph - N/A   Unknown
9:35 PM 53.6 °F 46.4 °F 77% 30.05 in 10.0 mi WNW 4.6 mph - N/A   Unknown
9:55 PM 51.8 °F 44.6 °F 76% 30.05 in 10.0 mi WNW 5.8 mph - N/A   Unknown
10:15 PM 50.0 °F 44.6 °F 82% 30.06 in 10.0 mi WSW 3.5 mph - N/A   Unknown
10:35 PM 50.0 °F 44.6 °F 82% 30.06 in 10.0 mi WNW 3.5 mph - N/A   Unknown
10:55 PM 48.2 °F 42.8 °F 82% 30.06 in 10.0 mi WSW 5.8 mph - N/A   Unknown
11:15 PM 50.0 °F 44.6 °F 82% 30.08 in 10.0 mi WSW 5.8 mph - N/A   Unknown
11:35 PM 48.2 °F 44.6 °F 87% 30.08 in 10.0 mi West 3.5 mph - N/A   Unknown
11:55 PM 48.2 °F 44.6 °F 87% 30.08 in 10.0 mi West 3.5 mph - N/A   Unknown